Regional Weather Roundup
Issued by NWS

Home | Current Version | Previous Version | Graphics & Text | Print | Product List | Glossary On
Versions: 1 2 3 4 5 6 7 8 9 10 11 12 13 14 15 16 17 18 19 20 21 22 23 24 25 26 27 28 29 30 31 32 33 34 35 36 37 38 39 40 41 42 43 44 45 46 47 48 49 50
000
ASUS43 KTOP 262059
RWRKS

WEATHER ROUNDUP FOR KANSAS
NATIONAL WEATHER SERVICE GOODLAND KS
400 PM CDT FRI MAY 26 2017

NOTE:  "FAIR" INDICATES FEW OR NO CLOUDS BELOW 12,000 FEET WITH NO
SIGNIFICANT WEATHER AND/OR OBSTRUCTIONS TO VISIBILITY.

KSZ001>006-013>018-027>032-041>047-262200-
NORTHWEST KANSAS

CITY           SKY/WX    TMP DP  RH WIND       PRES   REMARKS
GOODLAND       SUNNY     71  50  47 SE9       29.90S
HAYS           SUNNY     77  57  50 NE8       29.86S
HILL CITY      SUNNY     78  52  40 VRB3      29.87F
RUSSELL        SUNNY     78  55  44 NE8       29.83F
$$

KSZ061>065-074>080-084>089-262200-
SOUTHWEST KANSAS

CITY           SKY/WX    TMP DP  RH WIND       PRES   REMARKS
DODGE CITY     SUNNY     80  57  45 NE9       29.87F
ELKHART          N/A     80  48  32 SE15        N/A
GARDEN CITY    SUNNY     80  51  36 E13       29.88S
GREAT BEND     SUNNY     79  58  48 NE8G20    29.85S
LIBERAL        SUNNY     82  54  37 VRB7      29.86F
$$

KSZ066>073-081>083-090>101-262200-
SOUTHEAST KANSAS

CITY           SKY/WX    TMP DP  RH WIND       PRES   REMARKS
CHANUTE        MOSUNNY   84  65  52 NW5       29.76S
COFFEYVILLE    PTSUNNY   86  69  56 CALM      29.74S
HUTCHINSON     SUNNY     84  63  49 NE8       29.80S
MEDICINE LODGE   N/A     86  58  38 NE9       29.79S
NEWTON         MOSUNNY   81  63  54 NE8       29.81S
PARSONS        PTSUNNY   84  65  52 CALM      29.76S
WICHITA INTL   MOSUNNY   86  60  41 N9        29.78S
WICHITA JABRA  MOSUNNY   85  62  46 NE10      29.78S
WINFIELD       SUNNY     86  62  44 NE9       29.77F
$$

KSZ007>012-019>026-033>040-048>060-102>105-262200-
NORTHEAST KANSAS

CITY           SKY/WX    TMP DP  RH WIND       PRES   REMARKS
CONCORDIA      SUNNY     80  56  43 E6        29.82S
EMPORIA        MOSUNNY   83  64  52 N8        29.78S
LAWRENCE       MOSUNNY   86  66  51 VRB7      29.76S
MANHATTAN      SUNNY     84  62  47 VRB7      29.78S
OLATHE IND     MOSUNNY   82  65  56 CALM      29.77S
OLATHE EXE     MOSUNNY   83  65  54 VRB7      29.77R
SALINA         SUNNY     85  63  47 VRB5      29.81S
TOPEKA BILLARD MOSUNNY   85  65  51 N7        29.76S
TOPEKA FORBES  MOSUNNY   86  65  49 NW6       29.77S
$$



USA.gov is the U.S. government's official web portal to all federal, state and local government web resources and services.